Location: Poughquag
(41.6090°N, 73.6820°W)
Time: 12:34:34
(UTC-04:00)

Tiros 1 despin weight - Pass Details

Date: 06 June 2020
Orbit: 593 x 642 km, 48.2° (Epoch: 07 July)

Event Time Altitude Azimuth Distance (km) Brightness Sun altitude
Rises 07:37:58 0° 207° (SSW) 2,929 ? 22.9°
Reaches altitude 10° 07:40:34 10° 195° (SSW) 2,022 ? 23.4°
Maximum altitude 07:44:29 27° 138° (SE) 1,227 ? 24.1°
Drops below altitude 10° 07:48:23 10° 80° (E) 2,018 ? 24.8°
Sets 07:50:58 0° 69° (ENE) 2,922 ? 25.3°
